Valdosta Regional, GA

5:44 PM EDT on July 27, 2017 (GMT -0400)
Valdosta Regional

Weather History for KVLD - January, 2014

Change the Weather History Date:

Wednesday, January 8, 2014

  Actual Average Record
Temperature  
Mean Temperature 40 °F 50 °F  
Max Temperature 54 °F 62 °F 68 °F (2016)
Min Temperature 25 °F 39 °F 22 °F (2017)
Degree Days  
Heating Degree Days 25 15  
Month to date heating degree days 152 120  
Since 1 July heating degree days 516 733  
Moisture  
Dew Point 18 °F    
Average Humidity 41    
Maximum Humidity 55    
Minimum Humidity 26    
Precipitation  
Precipitation 0.00 in 0.17 in 0.69 in (2016)
Month to date precipitation 0.58 1.80  
Year to date precipitation 0.58 1.80  
Sea Level Pressure  
Sea Level Pressure 30.49 in    
Wind  
Wind Speed 6 mph (NE)    
Max Wind Speed 13 mph    
Max Gust Speed 16 mph    
Visibility 10 miles    
Events      
T = Trace of Precipitation, MM = Missing Value Source: NWS Daily Summary

Daily Weather History Graph

Daily Weather History Graph

Search for Another Location

Airport or City:

Trip Planner

Search our weather history database for the weather conditions in past years. The results will help you decide how hot, cold, wet, or windy it might be!

Date:

Astronomy

Jan. 08, 2014 Rise Set
Actual Time 7:31 AM EST 5:48 PM EST
Civil Twilight 7:05 AM EST 6:14 PM EST
Nautical Twilight 6:35 AM EST 6:44 PM EST
Astronomical Twilight 6:06 AM EST 7:13 PM EST
Moon 12:27 PM EST (1/8) 12:50 AM EST (1/8)
Length of Visible Light 11h 09m
Length of Day
10h 16m
First Quarter, 56% of the Moon is Illuminated
Jan 8
First Quarter
Jan 15
Full
Jan 24
Last Quarter
Jan 30
New
Feb 6
First Quarter

Hourly Weather History & Observations

Time (EST) Temp. Windchill Dew Point Humidity Pressure Visibility Wind Dir Wind Speed Gust Speed Precip Events Conditions
12:53 AM 27.0 °F 23.0 °F 10.0 °F 49% 30.53 in 10.0 mi ENE 3.5 mph - N/A   Clear
1:53 AM 27.0 °F 20.5 °F 9.0 °F 47% 30.53 in 10.0 mi East 5.8 mph - N/A   Clear
2:53 AM 27.0 °F 21.6 °F 10.9 °F 51% 30.53 in 10.0 mi NNE 4.6 mph - N/A   Clear
3:53 AM 26.1 °F 19.4 °F 12.0 °F 55% 30.53 in 10.0 mi NE 5.8 mph - N/A   Clear
4:53 AM 26.1 °F 19.4 °F 10.9 °F 53% 30.51 in 10.0 mi NE 5.8 mph - N/A   Clear
5:53 AM 27.0 °F 19.5 °F 10.9 °F 51% 30.50 in 10.0 mi NE 6.9 mph - 0.01 in   Clear
6:53 AM 26.1 °F 21.9 °F 10.0 °F 51% 30.51 in 10.0 mi NE 3.5 mph - N/A   Clear
7:53 AM 25.0 °F 18.1 °F 10.9 °F 55% 30.53 in 10.0 mi NNE 5.8 mph - N/A   Clear
8:53 AM 28.9 °F 21.1 °F 10.9 °F 47% 30.56 in 10.0 mi NE 8.1 mph - N/A   Clear
9:53 AM 36.0 °F 29.6 °F 12.9 °F 39% 30.57 in 10.0 mi NE 8.1 mph - N/A   Clear
10:53 AM 42.1 °F 37.7 °F 17.1 °F 37% 30.56 in 10.0 mi NE 6.9 mph - N/A   Partly Cloudy
11:53 AM 46.0 °F 42.5 °F 16.0 °F 30% 30.53 in 10.0 mi NE 6.9 mph - N/A   Clear
12:53 PM 48.9 °F - 16.0 °F 27% 30.48 in 10.0 mi Variable 3.5 mph - N/A   Clear
1:53 PM 52.0 °F - 19.0 °F 27% 30.45 in 10.0 mi Calm Calm - N/A   Clear
2:53 PM 54.0 °F - 19.9 °F 26% 30.43 in 10.0 mi NNE 6.9 mph - N/A   Partly Cloudy
3:53 PM 53.1 °F - 21.0 °F 29% 30.44 in 10.0 mi NE 8.1 mph - N/A   Mostly Cloudy
4:53 PM 53.1 °F - 21.9 °F 30% 30.44 in 10.0 mi NNE 9.2 mph - N/A   Overcast
5:53 PM 51.1 °F - 25.0 °F 36% 30.46 in 10.0 mi NNE 5.8 mph - N/A   Overcast
6:28 PM 50.0 °F - 24.8 °F 37% 30.42 in 10.0 mi NNE 6.9 mph - N/A   Overcast
6:53 PM 50.0 °F - 25.0 °F 38% 30.46 in 10.0 mi NE 5.8 mph - N/A   Overcast
7:53 PM 48.9 °F - 28.0 °F 44% 30.47 in 10.0 mi ENE 8.1 mph - N/A   Overcast
8:53 PM 48.0 °F - 28.0 °F 46% 30.48 in 10.0 mi NE 5.8 mph - N/A   Overcast
9:40 PM 46.4 °F 42.9 °F 26.6 °F 46% 30.45 in 10.0 mi NE 6.9 mph - N/A   Overcast
9:53 PM 46.9 °F - 25.0 °F 42% 30.48 in 10.0 mi NE 9.2 mph - N/A   Overcast
10:53 PM 46.9 °F - 24.1 °F 41% 30.47 in 10.0 mi NE 4.6 mph - N/A   Overcast
11:10 PM 46.4 °F 44.3 °F 24.8 °F 43% 30.44 in 10.0 mi NE 4.6 mph - N/A   Overcast
11:53 PM 46.9 °F - 25.0 °F 42% 30.46 in 10.0 mi NE 4.6 mph - N/A   Overcast